Year,Month,Day,Hour,Minute,Value (Times are PST for temperature in C)
2020,01,15,00,00,-5.60
2020,01,15,00,01,-5.60
2020,01,15,00,02,-5.60
2020,01,15,00,03,-5.60
2020,01,15,00,04,-5.60
2020,01,15,00,05,-5.60
2020,01,15,00,06,-5.60
2020,01,15,00,07,-5.60
2020,01,15,00,08,-5.60
2020,01,15,00,09,-5.60
2020,01,15,00,10,-5.60
2020,01,15,00,11,-5.60
2020,01,15,00,12,-5.60
2020,01,15,00,13,-5.60
2020,01,15,00,14,-5.60
2020,01,15,00,15,-5.60
2020,01,15,00,16,-5.60
2020,01,15,00,17,-5.60
2020,01,15,00,18,-5.70
2020,01,15,00,19,-5.70
2020,01,15,00,20,-5.70
2020,01,15,00,21,-5.70
2020,01,15,00,22,-5.70
2020,01,15,00,23,-5.70
2020,01,15,00,24,-5.70
2020,01,15,00,25,-5.70
2020,01,15,00,26,-5.70
2020,01,15,00,27,-5.70
2020,01,15,00,28,-5.70
2020,01,15,00,29,-5.70
2020,01,15,00,30,-5.70
2020,01,15,00,31,-5.70
2020,01,15,00,32,-5.70
2020,01,15,00,33,-5.70
2020,01,15,00,34,-5.70
2020,01,15,00,35,-5.70
2020,01,15,00,36,-5.70
2020,01,15,00,37,-5.70
2020,01,15,00,38,-5.70
2020,01,15,00,39,-5.70
2020,01,15,00,40,-5.70
2020,01,15,00,41,-5.70
2020,01,15,00,42,-5.70
2020,01,15,00,43,-5.70
2020,01,15,00,44,-5.70
2020,01,15,00,45,-5.70
2020,01,15,00,46,-5.70
2020,01,15,00,47,-5.70
2020,01,15,00,48,-5.70
2020,01,15,00,49,-5.70
2020,01,15,00,50,-5.70
2020,01,15,00,51,-5.70
2020,01,15,00,52,-5.70
2020,01,15,00,53,-5.70
2020,01,15,00,54,-5.80
2020,01,15,00,55,-5.80
2020,01,15,00,56,-5.80
2020,01,15,00,57,-5.80
2020,01,15,00,58,-5.80
2020,01,15,00,59,-5.80
2020,01,15,01,00,-5.80
2020,01,15,01,01,-5.80
2020,01,15,01,02,-5.80
2020,01,15,01,03,-5.80
2020,01,15,01,04,-5.80
2020,01,15,01,05,-5.80
2020,01,15,01,06,-5.80
2020,01,15,01,07,-5.80
2020,01,15,01,08,-5.80
2020,01,15,01,09,-5.80
2020,01,15,01,10,-5.80
2020,01,15,01,11,-5.80
2020,01,15,01,12,-5.80
2020,01,15,01,13,-5.80
2020,01,15,01,14,-5.80
2020,01,15,01,15,-5.80
2020,01,15,01,16,-5.80
2020,01,15,01,17,-5.80
2020,01,15,01,18,-5.80
2020,01,15,01,19,-5.80
2020,01,15,01,20,-5.80
2020,01,15,01,21,-5.80
2020,01,15,01,22,-5.80
2020,01,15,01,23,-5.80
2020,01,15,01,24,-5.80
2020,01,15,01,25,-5.80
2020,01,15,01,26,-5.80
2020,01,15,01,27,-5.80
2020,01,15,01,28,-5.80
2020,01,15,01,29,-5.80
2020,01,15,01,30,-5.80
2020,01,15,01,31,-5.80
2020,01,15,01,32,-5.80
2020,01,15,01,33,-5.80
2020,01,15,01,34,-5.80
2020,01,15,01,35,-5.80
2020,01,15,01,36,-5.80
2020,01,15,01,37,-5.80
2020,01,15,01,38,-5.80
2020,01,15,01,39,-5.80
2020,01,15,01,40,-5.80
2020,01,15,01,41,-5.80
2020,01,15,01,42,-5.80
2020,01,15,01,43,-5.80
2020,01,15,01,44,-5.80
2020,01,15,01,45,-5.80
2020,01,15,01,46,-5.80
2020,01,15,01,47,-5.80
2020,01,15,01,48,-5.80
2020,01,15,01,49,-5.80
2020,01,15,01,50,-5.80
2020,01,15,01,51,-5.80
2020,01,15,01,52,-5.80
2020,01,15,01,53,-5.80
2020,01,15,01,54,-5.80
2020,01,15,01,55,-5.80
2020,01,15,01,56,-5.80
2020,01,15,01,57,-5.80
2020,01,15,01,58,-5.80
2020,01,15,01,59,-5.80
2020,01,15,02,00,-5.80
2020,01,15,02,01,-5.80
2020,01,15,02,02,-5.80
2020,01,15,02,03,-5.80
2020,01,15,02,04,-5.80
2020,01,15,02,05,-5.80
2020,01,15,02,06,-5.80
2020,01,15,02,07,-5.80
2020,01,15,02,08,-5.80
2020,01,15,02,09,-5.80
2020,01,15,02,10,-5.80
2020,01,15,02,11,-5.80
2020,01,15,02,12,-5.80
2020,01,15,02,13,-5.80
2020,01,15,02,14,-5.80
2020,01,15,02,15,-5.80
2020,01,15,02,16,-5.80
2020,01,15,02,17,-5.80
2020,01,15,02,18,-5.80
2020,01,15,02,19,-5.80
2020,01,15,02,20,-5.80
2020,01,15,02,21,-5.80
2020,01,15,02,22,-5.80
2020,01,15,02,23,-5.80
2020,01,15,02,24,-5.80
2020,01,15,02,25,-5.80
2020,01,15,02,26,-5.80
2020,01,15,02,27,-5.80
2020,01,15,02,28,-5.80
2020,01,15,02,29,-5.80
2020,01,15,02,30,-5.80
2020,01,15,02,31,-5.80
2020,01,15,02,32,-5.80
2020,01,15,02,33,-5.80
2020,01,15,02,34,-5.80
2020,01,15,02,35,-5.80
2020,01,15,02,36,-5.80
2020,01,15,02,37,-5.80
2020,01,15,02,38,-5.80
2020,01,15,02,39,-5.80
2020,01,15,02,40,-5.80
2020,01,15,02,41,-5.70
2020,01,15,02,42,-5.70
2020,01,15,02,43,-5.70
2020,01,15,02,44,-5.70
2020,01,15,02,45,-5.70
2020,01,15,02,46,-5.70
2020,01,15,02,47,-5.70
2020,01,15,02,48,-5.70
2020,01,15,02,49,-5.70
2020,01,15,02,50,-5.70
2020,01,15,02,51,-5.80
2020,01,15,02,52,-5.80
2020,01,15,02,53,-5.80
2020,01,15,02,54,-5.80
2020,01,15,02,55,-5.80
2020,01,15,02,56,-5.80
2020,01,15,02,57,-5.80
2020,01,15,02,58,-5.80
2020,01,15,02,59,-5.80
2020,01,15,03,00,-5.80
2020,01,15,03,01,-5.80
2020,01,15,03,02,-5.80
2020,01,15,03,03,-5.80
2020,01,15,03,04,-5.80
2020,01,15,03,05,-5.80
2020,01,15,03,06,-5.80
2020,01,15,03,07,-5.80
2020,01,15,03,08,-5.80
2020,01,15,03,09,-5.80
2020,01,15,03,10,-5.80
2020,01,15,03,11,-5.80
2020,01,15,03,12,-5.90
2020,01,15,03,13,-5.90
2020,01,15,03,14,-5.90
2020,01,15,03,15,-5.90
2020,01,15,03,16,-5.90
2020,01,15,03,17,-5.90
2020,01,15,03,18,-5.90
2020,01,15,03,19,-5.90
2020,01,15,03,20,-5.80
2020,01,15,03,21,-5.80
2020,01,15,03,22,-5.80
2020,01,15,03,23,-5.80
2020,01,15,03,24,-5.80
2020,01,15,03,25,-5.80
2020,01,15,03,26,-5.80
2020,01,15,03,27,-5.80
2020,01,15,03,28,-5.80
2020,01,15,03,29,-5.80
2020,01,15,03,30,-5.80
2020,01,15,03,31,-5.80
2020,01,15,03,32,-5.80
2020,01,15,03,33,-5.80
2020,01,15,03,34,-5.80
2020,01,15,03,35,-5.80
2020,01,15,03,36,-5.80
2020,01,15,03,37,-5.80
2020,01,15,03,38,-5.80
2020,01,15,03,39,-5.80
2020,01,15,03,40,-5.80
2020,01,15,03,41,-5.80
2020,01,15,03,42,-5.80
2020,01,15,03,43,-5.80
2020,01,15,03,44,-5.80
2020,01,15,03,45,-5.80
2020,01,15,03,46,-5.90
2020,01,15,03,47,-5.90
2020,01,15,03,48,-5.90
2020,01,15,03,49,-5.90
2020,01,15,03,50,-5.90
2020,01,15,03,51,-5.90
2020,01,15,03,52,-5.90
2020,01,15,03,53,-5.90
2020,01,15,03,54,-5.90
2020,01,15,03,55,-5.90
2020,01,15,03,56,-5.90
2020,01,15,03,57,-6.00
2020,01,15,03,58,-6.00
2020,01,15,03,59,-6.00
2020,01,15,04,00,-6.00
2020,01,15,04,01,-6.00
2020,01,15,04,02,-6.00
2020,01,15,04,03,-6.00
2020,01,15,04,04,-6.00
2020,01,15,04,05,-6.00
2020,01,15,04,06,-6.10
2020,01,15,04,07,-6.10
2020,01,15,04,08,-6.10
2020,01,15,04,09,-6.10
2020,01,15,04,10,-6.10
2020,01,15,04,11,-6.10
2020,01,15,04,12,-6.10
2020,01,15,04,13,-6.10
2020,01,15,04,14,-6.10
2020,01,15,04,15,-6.10
2020,01,15,04,16,-6.20
2020,01,15,04,17,-6.20
2020,01,15,04,18,-6.20
2020,01,15,04,19,-6.20
2020,01,15,04,20,-6.20
2020,01,15,04,21,-6.20
2020,01,15,04,22,-6.20
2020,01,15,04,23,-6.20
2020,01,15,04,24,-6.20
2020,01,15,04,25,-6.20
2020,01,15,04,26,-6.20
2020,01,15,04,27,-6.20
2020,01,15,04,28,-6.20
2020,01,15,04,29,-6.20
2020,01,15,04,30,-6.20
2020,01,15,04,31,-6.20
2020,01,15,04,32,-6.20
2020,01,15,04,33,-6.30
2020,01,15,04,34,-6.30
2020,01,15,04,35,-6.30
2020,01,15,04,36,-6.30
2020,01,15,04,37,-6.30
2020,01,15,04,38,-6.30
2020,01,15,04,39,-6.30
2020,01,15,04,40,-6.30
2020,01,15,04,41,-6.30
2020,01,15,04,42,-6.30
2020,01,15,04,43,-6.30
2020,01,15,04,44,-6.30
2020,01,15,04,45,-6.30
2020,01,15,04,46,-6.30
2020,01,15,04,47,-6.30
2020,01,15,04,48,-6.30
2020,01,15,04,49,-6.30
2020,01,15,04,50,-6.30
2020,01,15,04,51,-6.30
2020,01,15,04,52,-6.30
2020,01,15,04,53,-6.30
2020,01,15,04,54,-6.40
2020,01,15,04,55,-6.40
2020,01,15,04,56,-6.40
2020,01,15,04,57,-6.40
2020,01,15,04,58,-6.40
2020,01,15,04,59,-6.40
2020,01,15,05,00,-6.40
2020,01,15,05,01,-6.40
2020,01,15,05,02,-6.40
2020,01,15,05,03,-6.40
2020,01,15,05,04,-6.40
2020,01,15,05,05,-6.40
2020,01,15,05,06,-6.40
2020,01,15,05,07,-6.40
2020,01,15,05,08,-6.40
2020,01,15,05,09,-6.40
2020,01,15,05,10,-6.40
2020,01,15,05,11,-6.40
2020,01,15,05,12,-6.40
2020,01,15,05,13,-6.40
2020,01,15,05,14,-6.40
2020,01,15,05,15,-6.40
2020,01,15,05,16,-6.40
2020,01,15,05,17,-6.40
2020,01,15,05,18,-6.40
2020,01,15,05,19,-6.30
2020,01,15,05,20,-6.30
2020,01,15,05,21,-6.30
2020,01,15,05,22,-6.30
2020,01,15,05,23,-6.30
2020,01,15,05,24,-6.30
2020,01,15,05,25,-6.30
2020,01,15,05,26,-6.40
2020,01,15,05,27,-6.40
2020,01,15,05,28,-6.40
2020,01,15,05,29,-6.40
2020,01,15,05,30,-6.40
2020,01,15,05,31,-6.40
2020,01,15,05,32,-6.40
2020,01,15,05,33,-6.40
2020,01,15,05,34,-6.40
2020,01,15,05,35,-6.40
2020,01,15,05,36,-6.50
2020,01,15,05,37,-6.50
2020,01,15,05,38,-6.50
2020,01,15,05,39,-6.50
2020,01,15,05,40,-6.50
2020,01,15,05,41,-6.60
2020,01,15,05,42,-6.60
2020,01,15,05,43,-6.60
2020,01,15,05,44,-6.60
2020,01,15,05,45,-6.60
2020,01,15,05,46,-6.70
2020,01,15,05,47,-6.70
2020,01,15,05,48,-6.70
2020,01,15,05,49,-6.70
2020,01,15,05,50,-6.70
2020,01,15,05,51,-6.70
2020,01,15,05,52,-6.70
2020,01,15,05,53,-6.70
2020,01,15,05,54,-6.70
2020,01,15,05,55,-6.70
2020,01,15,05,56,-6.70
2020,01,15,05,57,-6.70
2020,01,15,05,58,-6.70
2020,01,15,05,59,-6.70
2020,01,15,06,00,-6.70
2020,01,15,06,01,-6.70
2020,01,15,06,02,-6.70
2020,01,15,06,03,-6.70
2020,01,15,06,04,-6.70
2020,01,15,06,05,-6.70
2020,01,15,06,06,-6.70
2020,01,15,06,07,-6.70
2020,01,15,06,08,-6.70
2020,01,15,06,09,-6.80
2020,01,15,06,10,-6.80
2020,01,15,06,11,-6.80
2020,01,15,06,12,-6.80
2020,01,15,06,13,-6.80
2020,01,15,06,14,-6.80
2020,01,15,06,15,-6.80
2020,01,15,06,16,-6.80
2020,01,15,06,17,-6.80
2020,01,15,06,18,-6.80
2020,01,15,06,19,-6.80
2020,01,15,06,20,-6.80
2020,01,15,06,21,-6.80
2020,01,15,06,22,-6.80
2020,01,15,06,23,-6.80
2020,01,15,06,24,-6.80
2020,01,15,06,25,-6.80
2020,01,15,06,26,-6.80
2020,01,15,06,27,-6.80
2020,01,15,06,28,-6.80
2020,01,15,06,29,-6.70
2020,01,15,06,30,-6.70
2020,01,15,06,31,-6.70
2020,01,15,06,32,-6.70
2020,01,15,06,33,-6.70
2020,01,15,06,34,-6.60
2020,01,15,06,35,-6.60
2020,01,15,06,36,-6.60
2020,01,15,06,37,-6.60
2020,01,15,06,38,-6.60
2020,01,15,06,39,-6.60
2020,01,15,06,40,-6.60
2020,01,15,06,41,-6.60
2020,01,15,06,42,-6.60
2020,01,15,06,43,-6.60
2020,01,15,06,44,-6.50
2020,01,15,06,45,-6.50
2020,01,15,06,46,-6.50
2020,01,15,06,47,-6.50
2020,01,15,06,48,-6.50
2020,01,15,06,49,-6.50
2020,01,15,06,50,-6.50
2020,01,15,06,51,-6.40
2020,01,15,06,52,-6.40
2020,01,15,06,53,-6.40
2020,01,15,06,54,-6.40
2020,01,15,06,55,-6.40
2020,01,15,06,56,-6.40
2020,01,15,06,57,-6.40
2020,01,15,06,58,-6.30
2020,01,15,06,59,-6.30
2020,01,15,07,00,-6.30
2020,01,15,07,01,-6.30
2020,01,15,07,02,-6.30
2020,01,15,07,03,-6.30
2020,01,15,07,04,-6.30
2020,01,15,07,05,-6.30
2020,01,15,07,06,-6.30
2020,01,15,07,07,-6.30
2020,01,15,07,08,-6.30
2020,01,15,07,09,-6.30
2020,01,15,07,10,-6.30
2020,01,15,07,11,-6.30
2020,01,15,07,12,-6.20
2020,01,15,07,13,-6.20
2020,01,15,07,14,-6.20
2020,01,15,07,15,-6.20
2020,01,15,07,16,-6.20
2020,01,15,07,17,-6.20
2020,01,15,07,18,-6.20
2020,01,15,07,19,-6.20
2020,01,15,07,20,-6.20
2020,01,15,07,21,-6.20
2020,01,15,07,22,-6.20
2020,01,15,07,23,-6.20
2020,01,15,07,24,-6.10
2020,01,15,07,25,-6.10
2020,01,15,07,26,-6.10
2020,01,15,07,27,-6.10
2020,01,15,07,28,-6.10
2020,01,15,07,29,-6.10
2020,01,15,07,30,-6.10
2020,01,15,07,31,-6.10
2020,01,15,07,32,-6.10
2020,01,15,07,33,-6.10
2020,01,15,07,34,-6.10
2020,01,15,07,35,-6.10
2020,01,15,07,36,-6.00
2020,01,15,07,37,-6.00
2020,01,15,07,38,-6.00
2020,01,15,07,39,-6.00
2020,01,15,07,40,-6.00
2020,01,15,07,41,-6.00
2020,01,15,07,42,-6.00
2020,01,15,07,43,-6.00
2020,01,15,07,44,-6.00
2020,01,15,07,45,-6.00
2020,01,15,07,46,-5.90
2020,01,15,07,47,-5.90
2020,01,15,07,48,-5.90
2020,01,15,07,49,-5.90
2020,01,15,07,50,-5.90
2020,01,15,07,51,-5.90
2020,01,15,07,52,-5.90
2020,01,15,07,53,-5.90
2020,01,15,07,54,-5.90
2020,01,15,07,55,-5.90
2020,01,15,07,56,-5.90
2020,01,15,07,57,-5.90
2020,01,15,07,58,-5.90
2020,01,15,07,59,-5.90
2020,01,15,08,00,-5.90
2020,01,15,08,01,-5.90
2020,01,15,08,02,-5.90
2020,01,15,08,03,-5.90
2020,01,15,08,04,-5.90
2020,01,15,08,05,-5.90
2020,01,15,08,06,-5.90
2020,01,15,08,07,-5.90
2020,01,15,08,08,-5.90
2020,01,15,08,09,-5.80
2020,01,15,08,10,-5.80
2020,01,15,08,11,-5.80
2020,01,15,08,12,-5.80
2020,01,15,08,13,-5.80
2020,01,15,08,14,-5.80
2020,01,15,08,15,-5.80
2020,01,15,08,16,-5.80
2020,01,15,08,17,-5.80
2020,01,15,08,18,-5.80
2020,01,15,08,19,-5.80
2020,01,15,08,20,-5.80
2020,01,15,08,21,-5.80
2020,01,15,08,22,-5.80
2020,01,15,08,23,-5.70
2020,01,15,08,24,-5.70
2020,01,15,08,25,-5.70
2020,01,15,08,26,-5.70
2020,01,15,08,27,-5.70
2020,01,15,08,28,-5.70
2020,01,15,08,29,-5.70
2020,01,15,08,30,-5.60
2020,01,15,08,31,-5.60
2020,01,15,08,32,-5.60
2020,01,15,08,33,-5.60
2020,01,15,08,34,-5.70
2020,01,15,08,35,-5.70
2020,01,15,08,36,-5.70
2020,01,15,08,37,-5.70
2020,01,15,08,38,-5.70
2020,01,15,08,39,-5.70
2020,01,15,08,40,-5.70
2020,01,15,08,41,-5.70
2020,01,15,08,42,-5.70
2020,01,15,08,43,-5.70
2020,01,15,08,44,-5.70
2020,01,15,08,45,-5.70
2020,01,15,08,46,-5.70
2020,01,15,08,47,-5.70
2020,01,15,08,48,-5.70
2020,01,15,08,49,-5.70
2020,01,15,08,50,-5.70
2020,01,15,08,51,-5.70
2020,01,15,08,52,-5.70
2020,01,15,08,53,-5.70
2020,01,15,08,54,-5.70
2020,01,15,08,55,-5.70
2020,01,15,08,56,-5.70
2020,01,15,08,57,-5.70
2020,01,15,08,58,-5.70
2020,01,15,08,59,-5.70
2020,01,15,09,00,-5.70
2020,01,15,09,01,-5.70
2020,01,15,09,02,-5.70
2020,01,15,09,03,-5.60
2020,01,15,09,04,-5.60
2020,01,15,09,05,-5.60
2020,01,15,09,06,-5.60
2020,01,15,09,07,-5.60
2020,01,15,09,08,-5.60
2020,01,15,09,09,-5.60
2020,01,15,09,10,-5.60
2020,01,15,09,11,-5.50
2020,01,15,09,12,-5.50
2020,01,15,09,13,-5.50
2020,01,15,09,14,-5.60
2020,01,15,09,15,-5.50
2020,01,15,09,16,-5.60
2020,01,15,09,17,-5.50
2020,01,15,09,18,-5.50
2020,01,15,09,19,-5.50
2020,01,15,09,20,-5.50
2020,01,15,09,21,-5.50
2020,01,15,09,22,-5.50
2020,01,15,09,23,-5.50
2020,01,15,09,24,-5.40
2020,01,15,09,25,-5.40
2020,01,15,09,26,-5.40
2020,01,15,09,27,-5.40
2020,01,15,09,28,-5.40
2020,01,15,09,29,-5.40
2020,01,15,09,30,-5.40
2020,01,15,09,31,-5.40
2020,01,15,09,32,-5.40
2020,01,15,09,33,-5.40
2020,01,15,09,34,-5.30
2020,01,15,09,35,-5.30
2020,01,15,09,36,-5.30
2020,01,15,09,37,-5.30
2020,01,15,09,38,-5.30
2020,01,15,09,39,-5.30
2020,01,15,09,40,-5.30
2020,01,15,09,41,-5.30
2020,01,15,09,42,-5.30
2020,01,15,09,43,-5.30
2020,01,15,09,44,-5.30
2020,01,15,09,45,-5.20
2020,01,15,09,46,-5.20
2020,01,15,09,47,-5.20
2020,01,15,09,48,-5.20
2020,01,15,09,49,-5.20
2020,01,15,09,50,-5.20
2020,01,15,09,51,-5.20
2020,01,15,09,52,-5.20
2020,01,15,09,53,-5.20
2020,01,15,09,54,-5.30
2020,01,15,09,55,-5.30
2020,01,15,09,56,-5.30
2020,01,15,09,57,-5.30
2020,01,15,09,58,-5.30
2020,01,15,09,59,-5.30
2020,01,15,10,00,-5.20
2020,01,15,10,01,-5.20
2020,01,15,10,02,-5.20
2020,01,15,10,03,-5.20
2020,01,15,10,04,-5.20
2020,01,15,10,05,-5.20
2020,01,15,10,06,-5.20
2020,01,15,10,07,-5.20
2020,01,15,10,08,-5.20
2020,01,15,10,09,-5.20
2020,01,15,10,10,-5.20
2020,01,15,10,11,-5.10
2020,01,15,10,12,-5.10
2020,01,15,10,13,-5.10
2020,01,15,10,14,-5.10
2020,01,15,10,15,-5.20
2020,01,15,10,16,-5.10
2020,01,15,10,17,-5.10
2020,01,15,10,18,-5.10
2020,01,15,10,19,-5.10
2020,01,15,10,20,-5.10
2020,01,15,10,21,-5.10
2020,01,15,10,22,-5.10
2020,01,15,10,23,-5.10
2020,01,15,10,24,-5.10
2020,01,15,10,25,-5.10
2020,01,15,10,26,-5.10
2020,01,15,10,27,-5.10
2020,01,15,10,28,-5.10
2020,01,15,10,29,-5.00
2020,01,15,10,30,-5.00
2020,01,15,10,31,-5.00
2020,01,15,10,32,-5.00
2020,01,15,10,33,-5.00
2020,01,15,10,34,-4.90
2020,01,15,10,35,-4.90
2020,01,15,10,36,-4.90
2020,01,15,10,37,-4.90
2020,01,15,10,38,-4.80
2020,01,15,10,39,-4.80
2020,01,15,10,40,-4.80
2020,01,15,10,41,-4.80
2020,01,15,10,42,-4.80
2020,01,15,10,43,-4.80
2020,01,15,10,44,-4.80
2020,01,15,10,45,-4.80
2020,01,15,10,46,-4.70
2020,01,15,10,47,-4.70
2020,01,15,10,48,-4.70
2020,01,15,10,49,-4.70
2020,01,15,10,50,-4.60
2020,01,15,10,51,-4.60
2020,01,15,10,52,-4.60
2020,01,15,10,53,-4.60
2020,01,15,10,54,-4.60
2020,01,15,10,55,-4.60
2020,01,15,10,56,-4.60
2020,01,15,10,57,-4.50
2020,01,15,10,58,-4.50
2020,01,15,10,59,-4.50
2020,01,15,11,00,-4.50
2020,01,15,11,01,-4.50
2020,01,15,11,02,-4.40
2020,01,15,11,03,-4.40
2020,01,15,11,04,-4.50
2020,01,15,11,05,-4.40
2020,01,15,11,06,-4.40
2020,01,15,11,07,-4.40
2020,01,15,11,08,-4.40
2020,01,15,11,09,-4.40
2020,01,15,11,10,-4.40
2020,01,15,11,11,-4.40
2020,01,15,11,12,-4.40
2020,01,15,11,13,-4.40
2020,01,15,11,14,-4.40
2020,01,15,11,15,-4.40
2020,01,15,11,16,-4.40
2020,01,15,11,17,-4.40
2020,01,15,11,18,-4.40
2020,01,15,11,19,-4.40
2020,01,15,11,20,-4.40
2020,01,15,11,21,-4.40
2020,01,15,11,22,-4.40
2020,01,15,11,23,-4.40
2020,01,15,11,24,-4.30
2020,01,15,11,25,-4.30
2020,01,15,11,26,-4.30
2020,01,15,11,27,-4.30
2020,01,15,11,28,-4.30
2020,01,15,11,29,-4.30
2020,01,15,11,30,-4.30
2020,01,15,11,31,-4.30
2020,01,15,11,32,-4.30
2020,01,15,11,33,-4.30
2020,01,15,11,34,-4.20
2020,01,15,11,35,-4.20
2020,01,15,11,36,-4.20
2020,01,15,11,37,-4.20
2020,01,15,11,38,-4.10
2020,01,15,11,39,-4.10
2020,01,15,11,40,-4.10
2020,01,15,11,41,-4.10
2020,01,15,11,42,-4.10
2020,01,15,11,43,-4.10
2020,01,15,11,44,-4.10
2020,01,15,11,45,-4.10
2020,01,15,11,46,-4.10
2020,01,15,11,47,-4.10
2020,01,15,11,48,-4.10
2020,01,15,11,49,-4.10
2020,01,15,11,50,-4.10
2020,01,15,11,51,-4.10
2020,01,15,11,52,-4.00
2020,01,15,11,53,-4.00
2020,01,15,11,54,-4.00
2020,01,15,11,55,-4.00
2020,01,15,11,56,-3.90
2020,01,15,11,57,-3.90
2020,01,15,11,58,-3.80
2020,01,15,11,59,-3.80
2020,01,15,12,00,-3.80
2020,01,15,12,01,-3.70
2020,01,15,12,02,-3.70
2020,01,15,12,03,-3.70
2020,01,15,12,04,-3.70
2020,01,15,12,05,-3.70
2020,01,15,12,06,-3.70
2020,01,15,12,07,-3.70
2020,01,15,12,08,-3.60
2020,01,15,12,09,-3.60
2020,01,15,12,10,-3.60
2020,01,15,12,11,-3.60
2020,01,15,12,12,-3.60
2020,01,15,12,13,-3.60
2020,01,15,12,14,-3.60
2020,01,15,12,15,-3.60
2020,01,15,12,16,-3.50
2020,01,15,12,17,-3.50
2020,01,15,12,18,-3.50
2020,01,15,12,19,-3.50
2020,01,15,12,20,-3.50
2020,01,15,12,21,-3.50
2020,01,15,12,22,-3.50
2020,01,15,12,23,-3.50
2020,01,15,12,24,-3.50
2020,01,15,12,25,-3.50
2020,01,15,12,26,-3.40
2020,01,15,12,27,-3.40
2020,01,15,12,28,-3.40
2020,01,15,12,29,-3.40
2020,01,15,12,30,-3.40
2020,01,15,12,31,-3.40
2020,01,15,12,32,-3.40
2020,01,15,12,33,-3.40
2020,01,15,12,34,-3.40
2020,01,15,12,35,-3.40
2020,01,15,12,36,-3.40
2020,01,15,12,37,-3.40
2020,01,15,12,38,-3.40
2020,01,15,12,39,-3.30
2020,01,15,12,40,-3.30
2020,01,15,12,41,-3.30
2020,01,15,12,42,-3.30
2020,01,15,12,43,-3.30
2020,01,15,12,44,-3.30
2020,01,15,12,45,-3.30
2020,01,15,12,46,-3.30
2020,01,15,12,47,-3.30
2020,01,15,12,48,-3.30
2020,01,15,12,49,-3.30
2020,01,15,12,50,-3.20
2020,01,15,12,51,-3.20
2020,01,15,12,52,-3.20
2020,01,15,12,53,-3.10
2020,01,15,12,54,-3.00
2020,01,15,12,55,-3.00
2020,01,15,12,56,-2.90
2020,01,15,12,57,-2.90
2020,01,15,12,58,-2.90
2020,01,15,12,59,-2.90
2020,01,15,13,00,-2.80
2020,01,15,13,01,-2.80
2020,01,15,13,02,-2.80
2020,01,15,13,03,-2.80
2020,01,15,13,04,-2.80
2020,01,15,13,05,-2.80
2020,01,15,13,06,-2.80
2020,01,15,13,07,-2.80
2020,01,15,13,08,-2.70
2020,01,15,13,09,-2.70
2020,01,15,13,10,-2.70
2020,01,15,13,11,-2.70
2020,01,15,13,12,-2.70
2020,01,15,13,13,-2.70
2020,01,15,13,14,-2.70
2020,01,15,13,15,-2.60
2020,01,15,13,16,-2.60
2020,01,15,13,17,-2.60
2020,01,15,13,18,-2.60
2020,01,15,13,19,-2.60
2020,01,15,13,20,-2.60
2020,01,15,13,21,-2.60
2020,01,15,13,22,-2.60
2020,01,15,13,23,-2.60
2020,01,15,13,24,-2.60
2020,01,15,13,25,-2.60
2020,01,15,13,26,-2.60
2020,01,15,13,27,-2.60
2020,01,15,13,28,-2.60
2020,01,15,13,29,-2.50
2020,01,15,13,30,-2.50
2020,01,15,13,31,-2.50
2020,01,15,13,32,-2.50
2020,01,15,13,33,-2.50
2020,01,15,13,34,-2.50
2020,01,15,13,35,-2.40
2020,01,15,13,36,-2.40
2020,01,15,13,37,-2.40
2020,01,15,13,38,-2.50
2020,01,15,13,39,-2.50
2020,01,15,13,40,-2.50
2020,01,15,13,41,-2.50
2020,01,15,13,42,-2.50
2020,01,15,13,43,-2.50
2020,01,15,13,44,-2.50
2020,01,15,13,45,-2.50
2020,01,15,13,46,-2.40
2020,01,15,13,47,-2.40
2020,01,15,13,48,-2.40
2020,01,15,13,49,-2.40
2020,01,15,13,50,-2.40
2020,01,15,13,51,-2.30
2020,01,15,13,52,-2.30
2020,01,15,13,53,-2.20
2020,01,15,13,54,-2.20
2020,01,15,13,55,-2.20
2020,01,15,13,56,-2.30
2020,01,15,13,57,-2.30
2020,01,15,13,58,-2.30
2020,01,15,13,59,-2.30
2020,01,15,14,00,-2.30
2020,01,15,14,01,-2.30
2020,01,15,14,02,-2.30
2020,01,15,14,03,-2.30
2020,01,15,14,04,-2.30
2020,01,15,14,05,-2.30
2020,01,15,14,06,-2.30
2020,01,15,14,07,-2.20
2020,01,15,14,08,-2.30
2020,01,15,14,09,-2.30
2020,01,15,14,10,-2.20
2020,01,15,14,11,-2.30
2020,01,15,14,12,-2.30
2020,01,15,14,13,-2.30
2020,01,15,14,14,-2.30
2020,01,15,14,15,-2.30
2020,01,15,14,16,-2.30
2020,01,15,14,17,-2.30
2020,01,15,14,18,-2.30
2020,01,15,14,19,-2.40
2020,01,15,14,20,-2.40
2020,01,15,14,21,-2.40
2020,01,15,14,22,-2.40
2020,01,15,14,23,-2.50
2020,01,15,14,24,-2.50
2020,01,15,14,25,-2.60
2020,01,15,14,26,-2.60
2020,01,15,14,27,-2.60
2020,01,15,14,28,-2.60
2020,01,15,14,29,-2.60
2020,01,15,14,30,-2.60
2020,01,15,14,31,-2.60
2020,01,15,14,32,-2.60
2020,01,15,14,33,-2.60
2020,01,15,14,34,-2.60
2020,01,15,14,35,-2.60
2020,01,15,14,36,-2.60
2020,01,15,14,37,-2.50
2020,01,15,14,38,-2.50
2020,01,15,14,39,-2.50
2020,01,15,14,40,-2.50
2020,01,15,14,41,-2.50
2020,01,15,14,42,-2.50
2020,01,15,14,43,-2.40
2020,01,15,14,44,-2.40
2020,01,15,14,45,-2.40
2020,01,15,14,46,-2.40
2020,01,15,14,47,-2.40
2020,01,15,14,48,-2.40
2020,01,15,14,49,-2.40
2020,01,15,14,50,-2.40
2020,01,15,14,51,-2.40
2020,01,15,14,52,-2.40
2020,01,15,14,53,-2.40
2020,01,15,14,54,-2.40
2020,01,15,14,55,-2.50
2020,01,15,14,56,-2.50
2020,01,15,14,57,-2.50
2020,01,15,14,58,-2.50
2020,01,15,14,59,-2.50
2020,01,15,15,00,-2.50
2020,01,15,15,01,-2.50
2020,01,15,15,02,-2.50
2020,01,15,15,03,-2.50
2020,01,15,15,04,-2.50
2020,01,15,15,05,-2.50
2020,01,15,15,06,-2.50
2020,01,15,15,07,-2.50
2020,01,15,15,08,-2.50
2020,01,15,15,09,-2.60
2020,01,15,15,10,-2.50
2020,01,15,15,11,-2.60
2020,01,15,15,12,-2.60
2020,01,15,15,13,-2.60
2020,01,15,15,14,-2.60
2020,01,15,15,15,-2.60
2020,01,15,15,16,-2.60
2020,01,15,15,17,-2.60
2020,01,15,15,18,-2.50
2020,01,15,15,19,-2.50
2020,01,15,15,20,-2.50
2020,01,15,15,21,-2.50
2020,01,15,15,22,-2.50
2020,01,15,15,23,-2.50
2020,01,15,15,24,-2.50
2020,01,15,15,25,-2.50
2020,01,15,15,26,-2.60
2020,01,15,15,27,-2.60
2020,01,15,15,28,-2.60
2020,01,15,15,29,-2.60
2020,01,15,15,30,-2.60
2020,01,15,15,31,-2.60
2020,01,15,15,32,-2.60
2020,01,15,15,33,-2.60
2020,01,15,15,34,-2.60
2020,01,15,15,35,-2.60
2020,01,15,15,36,-2.60
2020,01,15,15,37,-2.60
2020,01,15,15,38,-2.60
2020,01,15,15,39,-2.60
2020,01,15,15,40,-2.60
2020,01,15,15,41,-2.60
2020,01,15,15,42,-2.60
2020,01,15,15,43,-2.60
2020,01,15,15,44,-2.60
2020,01,15,15,45,-2.60
2020,01,15,15,46,-2.60
2020,01,15,15,47,-2.60
2020,01,15,15,48,-2.50
2020,01,15,15,49,-2.50
2020,01,15,15,50,-2.50
2020,01,15,15,51,-2.40
2020,01,15,15,52,-2.40
2020,01,15,15,53,-2.40
2020,01,15,15,54,-2.40
2020,01,15,15,55,-2.30
2020,01,15,15,56,-2.30
2020,01,15,15,57,-2.20
2020,01,15,15,58,-2.20
2020,01,15,15,59,-2.20
2020,01,15,16,00,-2.30
2020,01,15,16,01,-2.30
2020,01,15,16,02,-2.30
2020,01,15,16,03,-2.20
2020,01,15,16,04,-2.20
2020,01,15,16,05,-2.20
2020,01,15,16,06,-2.20
2020,01,15,16,07,-2.20
2020,01,15,16,08,-2.20
2020,01,15,16,09,-2.10
2020,01,15,16,10,-2.10
2020,01,15,16,11,-2.00
2020,01,15,16,12,-2.00
2020,01,15,16,13,-2.00
2020,01,15,16,14,-1.90
2020,01,15,16,15,-1.90
2020,01,15,16,16,-1.90
2020,01,15,16,17,-1.90
2020,01,15,16,18,-1.80
2020,01,15,16,19,-1.80
2020,01,15,16,20,-1.80
2020,01,15,16,21,-1.70
2020,01,15,16,22,-1.70
2020,01,15,16,23,-1.70
2020,01,15,16,24,-1.70
2020,01,15,16,25,-1.60
2020,01,15,16,26,-1.60
2020,01,15,16,27,-1.60
2020,01,15,16,28,-1.60
2020,01,15,16,29,-1.60
2020,01,15,16,30,-1.60
2020,01,15,16,31,-1.60
2020,01,15,16,32,-1.70
2020,01,15,16,33,-1.70
2020,01,15,16,34,-1.70
2020,01,15,16,35,-1.70
2020,01,15,16,36,-1.60
2020,01,15,16,37,-1.60
2020,01,15,16,38,-1.60
2020,01,15,16,39,-1.60
2020,01,15,16,40,-1.60
2020,01,15,16,41,-1.60
2020,01,15,16,42,-1.60
2020,01,15,16,43,-1.60
2020,01,15,16,44,-1.60
2020,01,15,16,45,-1.60
2020,01,15,16,46,-1.60
2020,01,15,16,47,-1.60
2020,01,15,16,48,-1.60
2020,01,15,16,49,-1.60
2020,01,15,16,50,-1.60
2020,01,15,16,51,-1.60
2020,01,15,16,52,-1.60
2020,01,15,16,53,-1.60
2020,01,15,16,54,-1.60
2020,01,15,16,55,-1.60
2020,01,15,16,56,-1.50
2020,01,15,16,57,-1.60
2020,01,15,16,58,-1.60
2020,01,15,16,59,-1.60
2020,01,15,17,00,-1.60
2020,01,15,17,01,-1.60
2020,01,15,17,02,-1.60
2020,01,15,17,03,-1.60
2020,01,15,17,04,-1.60
2020,01,15,17,05,-1.60
2020,01,15,17,06,-1.50
2020,01,15,17,07,-1.60
2020,01,15,17,08,-1.60
2020,01,15,17,09,-1.60
2020,01,15,17,10,-1.60
2020,01,15,17,11,-1.60
2020,01,15,17,12,-1.60
2020,01,15,17,13,-1.60
2020,01,15,17,14,-1.60
2020,01,15,17,15,-1.60
2020,01,15,17,16,-1.50
2020,01,15,17,17,-1.50
2020,01,15,17,18,-1.40
2020,01,15,17,19,-1.40